User: anonymous   Login
Location: Unspecified
(0.0000°N, 0.0000°E)
Time: 21:21:27
(UTC+00:00)
Language:

MISRSAT - Orbit

View from above orbital plane
View from above orbital plane
View from above satellite
View from above satellite

Ground track
Ground track

The orbit is defined by the following mean orbital elements,

1 58497U          26145.59337146 +.00000000 +00000-0 +13591-3 0 00004
2 58497  97.9268 227.7002 0010219 213.6100 146.4467 14.83177812    06
Epoch (UTC): 25 May 2026 14:14:27
Eccentricity: 0.0010219
inclination: 97.9268°
perigee height: 612 km
apogee height: 626 km
right ascension of ascending node: 227.7002°
argument of perigee: 213.6100°
revolutions per day: 14.83177812
mean anomaly at epoch: 146.4467°

The dashed part of the orbit path shows where the satellite is in the earth's shadow,  

DLR